Location: Unspecified
(58.7730°N, 5.8460°E)
Time: 13:28:15
(UTC+01:00)

CZ-3 Stage 3 - Visible Passes

Search period start: 07 December 2016 00:00
Search period end: 17 December 2016 00:00
Orbit: 472 x 34731 km, 30.6° (Epoch: 05 December)

Date Brightness Start Highest point End Pass type
(mag) Time Alt. Az. Time Alt. Az. Time Alt. Az.
07 Dec 8.5 04:07:20 10° S 09:51:08 47° SW 12:58:23 10° SSE visible
08 Dec 9.3 01:11:16 10° ESE 07:29:22 50° SE 09:19:37 10° ESE visible
09 Dec 10.3 00:43:24 10° E 03:50:49 23° E 05:19:40 10° ENE visible
09 Dec 9.4 08:02:56 10° WSW 10:39:54 23° WSW 16:11:03 10° WSW visible
10 Dec 8.6 03:57:21 10° S 09:26:01 47° SW 12:49:34 10° SSE visible
11 Dec 9.2 00:58:46 10° SE 07:17:58 50° SE 09:10:51 10° ESE visible
12 Dec 10.3 00:28:54 10° ENE 03:40:07 24° E 05:10:44 10° ENE visible
12 Dec 9.4 07:52:26 10° WSW 10:29:34 24° WSW 16:01:27 10° WSW visible
13 Dec 8.7 03:47:25 10° S 09:06:04 48° SW 12:40:46 10° SSE visible
14 Dec 9.1 00:46:26 10° SE 07:06:31 51° SE 09:02:05 10° ESE visible
15 Dec 10.4 00:14:27 10° ENE 03:29:25 24° E 05:01:46 10° ENE visible
15 Dec 9.3 07:42:01 10° WSW 10:19:13 24° WSW 15:51:45 10° WSW visible
16 Dec 8.7 03:37:35 10° S 08:48:09 48° SW 12:31:57 10° SSE visible
